Decherd, TN

6:46 AM CST on February 26, 2017 (GMT -0600)
Winchester Municipal

Weather History for KBGF - October, 2012

Change the Weather History Date:

Sunday, October 14, 2012

  Actual Average (KTHA) Record (KTHA)
Temperature  
Mean Temperature 68 °F -  
Max Temperature 73 °F 74 °F 78 °F (2013)
Min Temperature 62 °F 46 °F 41 °F (2015)
Cooling Degree Days 2    
Growing Degree Days 18 (Base 50)    
Moisture  
Dew Point 60 °F    
Average Humidity 78    
Maximum Humidity 100    
Minimum Humidity 68    
Precipitation  
Precipitation 0.00 in - - ()
Sea Level Pressure  
Sea Level Pressure 30.08 in    
Wind  
Wind Speed 12 mph ()    
Max Wind Speed 20 mph    
Max Gust Speed 22 mph    
Visibility 9.7 miles    
Events      
Averages and records for this station are not official NWS values.
T = Trace of Precipitation, MM = Missing Value Source: Averaged Metar Reports

Daily Weather History Graph

Daily Weather History Graph

Search for Another Location

Airport or City:

Trip Planner

Search our weather history database for the weather conditions in past years. The results will help you decide how hot, cold, wet, or windy it might be!

Date:

Astronomy

Oct. 14, 2012 Rise Set
Actual Time 7:49 AM EDT 7:09 PM EDT
Civil Twilight 7:24 AM EDT 7:35 PM EDT
Nautical Twilight 6:54 AM EDT 8:04 PM EDT
Astronomical Twilight 6:25 AM EDT 8:34 PM EDT
Moon 6:49 AM EDT (10/14) 6:29 PM EDT (10/14)
Length of Visible Light 12h 10m
Length of Day
11h 19m
Waning Crescent, 1% of the Moon is Illuminated
Oct 14
Waning Crescent
Oct 15
New
Oct 21
First Quarter
Oct 29
Full
Nov 6
Last Quarter

Hourly Weather History & Observations

Time (EDT) Temp. Dew Point Humidity Pressure Visibility Wind Dir Wind Speed Gust Speed Precip Events Conditions
12:15 AM 64.4 °F 55.4 °F 73% 30.17 in 10.0 mi SSE 13.8 mph - N/A   Clear
12:35 AM 64.4 °F 53.6 °F 68% 30.17 in 10.0 mi SSE 13.8 mph - N/A   Clear
1:15 AM 64.4 °F 53.6 °F 68% 30.16 in 10.0 mi SSE 15.0 mph - N/A   Clear
1:35 AM 64.4 °F 53.6 °F 68% 30.15 in 10.0 mi SSE 12.7 mph - N/A   Clear
1:55 AM 64.4 °F 53.6 °F 68% 30.15 in 10.0 mi SSE 17.3 mph - N/A   Clear
2:15 AM 64.4 °F 53.6 °F 68% 30.15 in 10.0 mi SSE 17.3 mph - N/A   Clear
2:35 AM 62.6 °F 53.6 °F 72% 30.15 in 10.0 mi SSE 18.4 mph - N/A   Clear
2:55 AM 62.6 °F 53.6 °F 72% 30.15 in 10.0 mi SSE 15.0 mph - N/A   Clear
3:15 AM 62.6 °F 53.6 °F 72% 30.15 in 10.0 mi SSE 12.7 mph - N/A   Clear
3:35 AM 62.6 °F 53.6 °F 72% 30.15 in 10.0 mi SSE 12.7 mph - N/A   Partly Cloudy
3:55 AM 62.6 °F 53.6 °F 72% 30.14 in 10.0 mi SSE 18.4 mph - N/A   Clear
4:15 AM 62.6 °F 53.6 °F 72% 30.12 in 10.0 mi SSE 17.3 mph - N/A   Partly Cloudy
4:35 AM 62.6 °F 55.4 °F 77% 30.12 in 10.0 mi SSE 17.3 mph - N/A   Clear
4:55 AM 62.6 °F 55.4 °F 77% 30.11 in 10.0 mi SSE 17.3 mph - N/A   Clear
5:15 AM 62.6 °F 55.4 °F 77% 30.12 in 10.0 mi SSE 13.8 mph - N/A   Clear
5:35 AM 62.6 °F 55.4 °F 77% 30.12 in 10.0 mi SSE 19.6 mph - N/A   Clear
5:55 AM 62.6 °F 55.4 °F 77% 30.13 in 10.0 mi SSE 12.7 mph - N/A   Partly Cloudy
6:15 AM 62.6 °F 57.2 °F 82% 30.13 in 10.0 mi South 9.2 mph 21.9 mph N/A   Mostly Cloudy
6:35 AM 62.6 °F 57.2 °F 82% 30.12 in 10.0 mi SSE 12.7 mph - N/A   Overcast
6:55 AM 62.6 °F 57.2 °F 82% 30.12 in 10.0 mi SSE 10.4 mph - N/A   Overcast
7:15 AM 62.6 °F 57.2 °F 82% 30.12 in 10.0 mi SE 8.1 mph - N/A   Overcast
7:35 AM 62.6 °F 57.2 °F 82% 30.13 in 10.0 mi SSE 5.8 mph - N/A   Overcast
7:55 AM 62.6 °F 57.2 °F 82% 30.14 in 10.0 mi South 6.9 mph - N/A   Overcast
8:15 AM 64.4 °F 59.0 °F 83% 30.16 in 10.0 mi South 10.4 mph - N/A   Overcast
8:35 AM 64.4 °F 59.0 °F 83% 30.16 in 10.0 mi South 12.7 mph - N/A   Overcast
8:55 AM 64.4 °F 59.0 °F 83% 30.17 in 10.0 mi SSE 17.3 mph - N/A   Overcast
9:15 AM 64.4 °F 59.0 °F 83% 30.19 in 10.0 mi South 11.5 mph - N/A   Overcast
9:35 AM 64.4 °F 59.0 °F 83% 30.18 in 10.0 mi SSE 17.3 mph - N/A   Overcast
9:55 AM 64.4 °F 59.0 °F 83% 30.19 in 10.0 mi SSE 16.1 mph - N/A   Overcast
10:15 AM 64.4 °F 59.0 °F 83% 30.18 in 10.0 mi SSE 15.0 mph - N/A   Overcast
10:35 AM 66.2 °F 60.8 °F 83% 30.16 in 10.0 mi South 16.1 mph - N/A   Mostly Cloudy
10:55 AM 66.2 °F 60.8 °F 83% 30.16 in 10.0 mi SSE 18.4 mph - N/A   Partly Cloudy
11:15 AM 68.0 °F 60.8 °F 78% 30.17 in 10.0 mi South 12.7 mph - N/A   Partly Cloudy
11:35 AM 68.0 °F 60.8 °F 78% 30.17 in 10.0 mi South 13.8 mph - N/A   Mostly Cloudy
11:55 AM 69.8 °F 60.8 °F 73% 30.17 in 10.0 mi South 12.7 mph - N/A   Overcast
12:15 PM 69.8 °F 60.8 °F 73% 30.15 in 10.0 mi South 18.4 mph - N/A   Mostly Cloudy
12:35 PM 69.8 °F 60.8 °F 73% 30.14 in 10.0 mi South 12.7 mph - N/A   Partly Cloudy
12:55 PM 69.8 °F 60.8 °F 73% 30.12 in 10.0 mi South 15.0 mph - N/A   Clear
1:15 PM 71.6 °F 60.8 °F 69% 30.11 in 10.0 mi South 13.8 mph - N/A   Partly Cloudy
1:35 PM 73.4 °F 62.6 °F 69% 30.09 in 10.0 mi South 13.8 mph - N/A   Scattered Clouds
1:55 PM 73.4 °F 62.6 °F 69% 30.08 in 10.0 mi South 17.3 mph - N/A   Mostly Cloudy
2:15 PM 73.4 °F 62.6 °F 69% 30.06 in 10.0 mi South 18.4 mph - N/A   Scattered Clouds
2:35 PM 73.4 °F 62.6 °F 69% 30.06 in 10.0 mi SSW 12.7 mph - N/A   Scattered Clouds
2:55 PM 73.4 °F 62.6 °F 69% 30.04 in 10.0 mi South 10.4 mph - N/A   Scattered Clouds
3:15 PM 73.4 °F 62.6 °F 69% 30.02 in 10.0 mi South 10.4 mph - N/A   Partly Cloudy
3:35 PM 73.4 °F 62.6 °F 69% 30.01 in 10.0 mi South 13.8 mph - N/A   Clear
3:55 PM 73.4 °F 62.6 °F 69% 30.01 in 10.0 mi South 12.7 mph - N/A   Clear
4:15 PM 71.6 °F 62.6 °F 73% 30.01 in 10.0 mi South 13.8 mph - N/A   Mostly Cloudy
4:35 PM 71.6 °F 62.6 °F 73% 30.01 in 10.0 mi South 11.5 mph - N/A   Mostly Cloudy
4:55 PM 69.8 °F 62.6 °F 78% 30.00 in 10.0 mi South 12.7 mph - N/A   Mostly Cloudy
5:15 PM 71.6 °F 62.6 °F 73% 29.99 in 10.0 mi South 13.8 mph - N/A   Partly Cloudy
5:35 PM 71.6 °F 62.6 °F 73% 29.98 in 10.0 mi South 6.9 mph - N/A   Clear
5:55 PM 71.6 °F 62.6 °F 73% 29.98 in 10.0 mi South 8.1 mph - N/A   Scattered Clouds
6:15 PM 71.6 °F 62.6 °F 73% 29.98 in 10.0 mi South 8.1 mph - N/A   Mostly Cloudy
6:35 PM 71.6 °F 62.6 °F 73% 29.98 in 10.0 mi South 6.9 mph - N/A   Mostly Cloudy
6:55 PM 71.6 °F 62.6 °F 73% 29.98 in 10.0 mi South 6.9 mph - N/A   Overcast
7:15 PM 71.6 °F 62.6 °F 73% 29.98 in 10.0 mi South 9.2 mph - N/A   Overcast
7:35 PM 69.8 °F 62.6 °F 78% 29.98 in 10.0 mi South 6.9 mph - N/A   Overcast
7:55 PM 69.8 °F 62.6 °F 78% 29.99 in 10.0 mi South 6.9 mph - N/A   Overcast
8:15 PM 69.8 °F 62.6 °F 78% 29.98 in 10.0 mi South 9.2 mph - N/A   Overcast
8:35 PM 69.8 °F 64.4 °F 83% 29.97 in 4.0 mi South 4.6 mph - N/A   Mostly Cloudy
8:55 PM 68.0 °F 64.4 °F 88% 29.97 in 9.0 mi SSW 5.8 mph - N/A   Overcast
9:15 PM 68.0 °F 64.4 °F 88% 29.97 in 10.0 mi South 6.9 mph - N/A   Overcast
9:35 PM 68.0 °F 64.4 °F 88% 29.98 in 10.0 mi SSW 6.9 mph - N/A   Overcast
9:55 PM 66.2 °F 64.4 °F 94% 29.98 in 8.0 mi South 5.8 mph - N/A   Overcast
10:15 PM 66.2 °F 64.4 °F 94% 29.97 in 10.0 mi SSE 6.9 mph - N/A   Scattered Clouds
10:35 PM 66.2 °F 64.4 °F 94% 29.96 in 10.0 mi Calm Calm - N/A   Clear
10:55 PM 66.2 °F 64.4 °F 94% 29.94 in 10.0 mi SSE 3.5 mph - N/A   Clear
11:15 PM 66.2 °F 64.4 °F 94% 29.97 in 9.0 mi SSW 5.8 mph - N/A   Scattered Clouds
11:35 PM 64.4 °F 62.6 °F 94% 29.98 in 5.0 mi WNW 6.9 mph - N/A   Mostly Cloudy
11:55 PM 62.6 °F 62.6 °F 100% 29.98 in 1.0 mi WNW 6.9 mph - N/A   Overcast